SR1NRS Weather Reports


time (UTC)temp
F
wind
direction
speed
knots
gust
knots
rain 1hr
in
rain 24hr
in
rain mn
in
humidity
%
barometer
mb
20260504223123 55 207 0.9 0.9 0.00 0.00 0.00 73 1011.2
20260504222624 55 212 0.9 0.9 0.00 0.00 0.00 73 1011.2
20260504222124 55 207 0.0 0.0 0.00 0.00 0.00 73 1011.2
20260504221623 55 205 0.0 0.9 0.00 0.00 0.00 72 1011.2
20260504220644 55 206 0.9 0.9 0.00 0.00 0.00 72 1011.2
20260504220123 56 213 0.0 0.0 0.00 0.00 0.00 72 1011.2
20260504215623 56 208 0.0 0.0 0.00 0.00 0.00 72 1011.2
20260504215123 56 233 0.0 0.9 0.00 0.00 0.00 72 1011.2
20260504214623 56 183 0.0 0.9 0.00 0.00 0.00 72 1011.2
20260504214123 56 193 0.9 0.9 0.00 0.00 0.00 72 1011.5
20260504213623 56 193 0.9 0.9 0.00 0.00 0.00 72 1011.2
20260504213124 56 223 0.0 0.0 0.00 0.00 0.00 71 1011.5
20260504212623 56 188 0.0 0.0 0.00 0.00 0.00 71 1011.5
20260504212124 56 204 0.0 0.9 0.00 0.00 0.00 71 1011.2
20260504211624 56 179 0.0 0.0 0.00 0.00 0.00 71 1011.2
20260504211123 56 297 0.9 0.9 0.00 0.00 0.00 71 1011.2
20260504210623 57 292 0.9 1.7 0.00 0.00 0.00 70 1011.5
20260504210123 57 218 0.0 0.0 0.00 0.00 0.00 70 1011.5
20260504205623 57 262 1.7 1.7 0.00 0.00 0.00 70 1011.5
20260504205126 57 169 0.0 0.0 0.00 0.00 0.00 70 1011.9
20260504204623 57 190 0.9 0.9 0.00 0.00 0.00 69 1011.5
20260504204124 57 200 0.0 0.0 0.00 0.00 0.00 69 1011.5
20260504203623 57 260 0.9 0.9 0.00 0.00 0.00 69 1011.5
20260504203124 57 204 0.0 0.0 0.00 0.00 0.00 68 1011.5
20260504202624 57 235 0.9 0.9 0.00 0.00 0.00 68 1011.5
20260504202124 58 153 0.9 1.7 0.00 0.00 0.00 68 1011.5
20260504201623 58 206 0.0 0.9 0.00 0.00 0.00 68 1011.5
20260504201123 58 272 1.7 1.7 0.00 0.00 0.00 68 1011.5
20260504200624 58 235 0.0 0.0 0.00 0.00 0.00 68 1011.5
20260504200123 58 329 1.7 1.7 0.00 0.00 0.00 68 1011.9
20260504195623 58 71 1.7 2.6 0.00 0.00 0.00 68 1011.9
20260504195123 58 235 1.7 1.7 0.00 0.00 0.00 68 1011.9
20260504194623 58 246 1.7 2.6 0.00 0.00 0.00 67 1011.9
20260504194123 59 14 3.5 5.2 0.00 0.00 0.00 67 1011.9
20260504193625 59 204 0.9 0.9 0.00 0.00 0.00 67 1011.5
20260504193124 59 286 1.7 4.3 0.00 0.00 0.00 66 1011.9
20260504192623 59 237 1.7 2.6 0.00 0.00 0.00 66 1011.5
20260504192123 60 218 0.9 1.7 0.00 0.00 0.00 65 1011.5
20260504191623 60 193 0.9 1.7 0.00 0.00 0.00 65 1011.9
20260504191123 60 148 0.9 0.9 0.00 0.00 0.00 64 1011.5
20260504190623 60 300 2.6 4.3 0.00 0.00 0.00 64 1011.5
20260504190123 61 288 4.3 7.0 0.00 0.00 0.00 63 1011.2
20260504185623 61 250 0.9 1.7 0.00 0.00 0.00 63 1011.2
20260504184645 62 292 1.7 2.6 0.00 0.00 0.00 62 1011.2
20260504184124 62 326 2.6 4.3 0.00 0.00 0.00 61 1011.2
20260504183623 62 354 2.6 5.2 0.00 0.00 0.00 61 1011.2
20260504183123 62 256 0.9 1.7 0.00 0.00 0.00 61 1011.2
20260504182623 62 193 0.9 1.7 0.00 0.00 0.00 61 1010.8
20260504182123 63 248 0.9 2.6 0.00 0.00 0.00 61 1010.8
20260504181623 63 45 1.7 2.6 0.00 0.00 0.00 61 1010.8
20260504181123 63 17 3.5 5.2 0.00 0.00 0.00 61 1011.2
20260504180624 63 53 2.6 4.3 0.00 0.00 0.00 61 1010.8
20260504180125 63 226 0.9 1.7 0.00 0.00 0.00 61 1011.2
20260504175624 63 348 2.6 2.6 0.00 0.00 0.00 61 1010.5
20260504175124 64 302 1.7 2.6 0.00 0.00 0.00 61 1010.8
20260504174624 64 355 1.7 1.7 0.00 0.00 0.00 60 1010.8
20260504174123 64 234 0.0 0.9 0.00 0.00 0.00 60 1010.5
20260504173624 65 354 2.6 5.2 0.00 0.00 0.00 60 1010.8
20260504173123 65 251 0.0 0.9 0.00 0.00 0.00 59 1010.5
20260504172624 66 226 1.7 2.6 0.00 0.00 0.00 59 1010.5
20260504172124 66 21 2.6 2.6 0.00 0.00 0.00 58 1010.5
20260504171623 66 308 4.3 6.1 0.00 0.00 0.00 58 1010.2
20260504171124 66 343 3.5 5.2 0.00 0.00 0.00 57 1010.5
20260504170624 67 337 3.5 7.0 0.00 0.00 0.00 56 1010.5
20260504170123 69 210 0.9 0.9 0.00 0.00 0.00 54 1010.5
20260504160124 70 335 3.5 4.3 0.00 0.00 0.00 49 1010.2
20260504151124 70 316 3.5 4.3 0.00 0.00 0.00 46 1010.5
20260504150623 70 216 0.9 2.6 0.00 0.00 0.00 47 1010.2
20260504150124 70 337 6.1 7.0 0.00 0.00 0.00 46 1010.5
20260504141124 73 328 2.6 2.6 0.00 0.00 0.00 43 1010.5
20260504140623 71 337 6.1 7.8 0.00 0.00 0.00 45 1010.5
20260504140123 73 341 6.1 8.7 0.00 0.00 0.00 44 1010.2
20260504130623 72 236 4.3 7.8 0.00 0.00 0.00 44 1010.2
20260504130123 71 242 2.6 5.2 0.00 0.00 0.00 45 1010.2
20260504120125 70 239 5.2 6.1 0.00 0.00 0.00 47 1010.5
20260504110623 69 261 5.2 6.1 0.00 0.00 0.00 50 1010.5
20260504110123 69 234 1.7 4.3 0.00 0.00 0.00 48 1010.5
20260504100123 69 274 5.2 7.8 0.00 0.00 0.00 48 1010.8
20260504090123 68 206 5.2 7.8 0.00 0.00 0.00 52 1010.8
20260504081623 67 268 7.8 11.3 0.00 0.00 0.00 57 1010.5
20260504081123 66 261 4.3 5.2 0.00 0.00 0.00 57 1010.5
20260504080625 67 226 4.3 6.1 0.00 0.00 0.00 56 1010.5
20260504080124 66 263 3.5 6.1 0.00 0.00 0.00 57 1010.5
20260504070123 65 301 4.3 6.1 0.00 0.00 0.00 57 1009.8
20260504060123 62 229 2.6 4.3 0.00 0.00 0.00 59 1010.2
20260504050623 62 228 3.5 4.3 0.00 0.00 0.00 55 1009.5
20260504050123 62 211 1.7 2.6 0.00 0.00 0.00 55 1009.5
20260504045623 62 189 1.7 2.6 0.00 0.00 0.00 54 1009.5
20260504045124 62 240 2.6 2.6 0.00 0.00 0.00 54 1009.5
20260504044623 62 247 0.9 1.7 0.00 0.00 0.00 54 1009.1
20260504044123 62 210 1.7 1.7 0.00 0.00 0.00 54 1009.5
20260504043623 62 221 1.7 1.7 0.00 0.00 0.00 54 1009.5
20260504043123 62 218 0.0 0.0 0.00 0.00 0.00 53 1009.5
20260504042624 62 232 0.9 1.7 0.00 0.00 0.00 53 1009.1
20260504042123 62 218 3.5 4.3 0.00 0.00 0.00 54 1009.1
20260504041623 62 171 0.9 1.7 0.00 0.00 0.00 54 1009.1
20260504041123 62 209 0.9 1.7 0.00 0.00 0.00 54 1009.1
20260504040623 62 163 1.7 1.7 0.00 0.00 0.00 54 1009.1
20260504040124 62 225 1.7 1.7 0.00 0.00 0.00 53 1009.1
20260504035624 62 222 2.6 2.6 0.00 0.00 0.00 53 1009.1
20260504035124 62 215 0.0 0.9 0.00 0.00 0.00 52 1009.1
20260504034623 62 243 1.7 2.6 0.00 0.00 0.00 52 1009.1
20260504034123 62 216 0.9 0.9 0.00 0.00 0.00 52 1009.1
20260504033623 62 217 2.6 2.6 0.00 0.00 0.00 52 1009.1
20260504033123 62 227 1.7 1.7 0.00 0.00 0.00 52 1009.1
20260504032623 62 223 0.9 1.7 0.00 0.00 0.00 52 1008.8
20260504032123 62 214 0.0 0.0 0.00 0.00 0.00 52 1009.1
20260504031623 62 214 0.9 0.9 0.00 0.00 0.00 52 1009.1
20260504031123 63 226 1.7 1.7 0.00 0.00 0.00 51 1009.1
20260504030623 63 212 0.9 1.7 0.00 0.00 0.00 51 1008.8
20260504030124 63 202 0.9 0.9 0.00 0.00 0.00 51 1008.8
20260504025623 63 218 0.9 0.9 0.00 0.00 0.00 51 1008.5
20260504025124 63 220 0.9 0.9 0.00 0.00 0.00 51 1008.5
20260504024623 63 207 0.0 0.9 0.00 0.00 0.00 50 1008.8
20260504024125 63 219 0.0 0.0 0.00 0.00 0.00 50 1008.5
20260504023623 63 234 0.9 0.9 0.00 0.00 0.00 49 1008.5
20260504023124 63 215 0.9 1.7 0.00 0.00 0.00 50 1008.8
20260504022623 63 219 0.0 0.0 0.00 0.00 0.00 49 1008.5
20260504022123 63 213 0.9 0.9 0.00 0.00 0.00 49 1008.5
20260504021624 64 222 0.9 0.9 0.00 0.00 0.00 49 1008.5
20260504021124 64 221 1.7 1.7 0.00 0.00 0.00 49 1008.5
20260504020624 64 221 1.7 1.7 0.00 0.00 0.00 48 1008.5
20260504020124 64 209 0.0 0.0 0.00 0.00 0.00 47 1008.5
20260504015623 64 194 0.9 1.7 0.00 0.00 0.00 47 1008.5
20260504015123 64 217 1.7 1.7 0.00 0.00 0.00 47 1008.5
20260504014623 64 209 0.9 0.9 0.00 0.00 0.00 47 1008.5
20260504014124 65 202 0.9 0.9 0.00 0.00 0.00 46 1008.5
20260504013623 65 230 1.7 1.7 0.00 0.00 0.00 46 1008.5
20260504013124 65 224 0.9 1.7 0.00 0.00 0.00 45 1008.5
20260504012624 65 203 0.0 0.9 0.00 0.00 0.00 46 1008.5
20260504012123 65 223 0.9 0.9 0.00 0.00 0.00 45 1008.1
20260504011623 65 206 0.9 0.9 0.00 0.00 0.00 45 1008.1
20260504011124 66 213 0.9 0.9 0.00 0.00 0.00 45 1008.5
20260504010623 66 213 1.7 2.6 0.00 0.00 0.00 44 1008.1
20260504010124 66 214 1.7 1.7 0.00 0.00 0.00 43 1008.1
20260504005623 67 215 0.0 0.0 0.00 0.00 0.00 42 1008.1
20260504005123 67 221 1.7 1.7 0.00 0.00 0.00 41 1008.1
20260504004624 67 223 2.6 4.3 0.00 0.00 0.00 41 1008.1
20260504004123 67 224 0.9 1.7 0.00 0.00 0.00 41 1008.5
20260504003627 67 243 1.7 1.7 0.00 0.00 0.00 40 1008.1
20260504003123 68 220 0.9 1.7 0.00 0.00 0.00 39 1008.1
20260504002623 68 214 0.9 0.9 0.00 0.00 0.00 39 1008.5
20260504002123 68 258 0.9 1.7 0.00 0.00 0.00 38 1008.5
20260504001623 68 262 1.7 2.6 0.00 0.00 0.00 38 1008.5
20260504001123 68 220 1.7 1.7 0.00 0.00 0.00 38 1008.5
20260504000623 68 242 2.6 2.6 0.00 0.00 0.00 38 1008.5
20260504000123 68 215 0.9 0.9 0.00 0.00 0.00 38 1008.5
20260503235623 68 221 0.0 0.0 0.00 0.00 0.00 38 1008.5
20260503235123 68 217 0.0 0.0 0.00 0.00 0.00 39 1008.1
20260503234623 68 200 2.6 2.6 0.00 0.00 0.00 39 1008.5
20260503234123 67 219 0.9 0.9 0.00 0.00 0.00 39 1008.1
20260503233623 67 237 0.0 0.0 0.00 0.00 0.00 40 1008.1
20260503233123 65 244 0.9 1.7 0.00 0.00 0.00 42 1008.5
20260503232623 65 222 0.0 0.0 0.00 0.00 0.00 44 1008.1
20260503232124 63 271 0.9 1.7 0.00 0.00 0.00 49 1008.5
20260503231624 63 264 0.9 0.9 0.00 0.00 0.00 50 1008.5
20260503231123 63 299 0.9 1.7 0.00 0.00 0.00 50 1008.5
20260503230624 63 224 0.9 0.9 0.00 0.00 0.00 50 1008.5
20260503230123 63 231 0.9 1.7 0.00 0.00 0.00 51 1008.1
20260503225624 63 223 0.9 1.7 0.00 0.00 0.00 51 1008.5
20260503225124 63 248 1.7 2.6 0.00 0.00 0.00 51 1008.5
20260503224623 63 218 0.0 0.9 0.00 0.00 0.00 52 1008.5
20260503224123 63 269 2.6 2.6 0.00 0.00 0.00 53 1008.8
20260503223624 63 218 0.9 1.7 0.00 0.00 0.00 53 1008.5